QPF
0.00 0.00 0.00 0.00 0.00 0.00 0.00 0.00 0.00 0.00 0.00 0.00 0.00 0.00 0.00 0.00 0.00 0.00 0.00 0.00 0.00 0.00 0.00 0.00 0.00 0.00 0.00 0.00 0.00 0.00 0.00 0.00 0.00 0.00 0.00 0.00 0.00 0.00 0.01 0.02 0.06 0.03 0.01
0.00 0.00 0.00 0.00 0.00 0.00 0.00 0.00 0.00 0.00 0.00 0.00 0.00 0.00 0.00 0.00 0.00 0.00 0.00 0.00 0.00 0.00 0.01 0.01 0.01 0.00 0.00 0.00 0.00 0.00 0.00 0.00 0.00 0.00 0.00 0.00 0.00 0.00 0.01 0.03 0.09 0.03 0.01
0.00 0.00 0.00 0.00 0.00 0.00 0.00 0.00 0.00 0.00 0.00 0.00 0.00 0.00 0.00 0.00 0.00 0.00 0.00 0.00 0.00 0.00 0.01 0.01 0.01 0.00 0.00 0.00 0.00 0.00 0.00 0.00 0.00 0.01 0.06 0.05 0.00 0.00 0.01 0.04 0.04 0.01 0.00
0.00 0.00 0.00 0.00 0.00 0.00 0.00 0.00 0.00 0.00 0.00 0.00 0.00 0.00 0.00 0.00 0.00 0.00 0.00 0.00 0.00 0.01 0.00 0.00 0.01 0.00 0.00 0.00 0.00 0.00 0.00 0.00 0.00 0.03 0.17 0.08 0.01 0.00 0.00 0.01 0.01 0.00 0.01
0.00 0.00 0.00 0.00 0.00 0.00 0.00 0.00 0.00 0.00 0.00 0.00 0.00 0.00 0.00 0.00 0.00 0.00 0.00 0.00 0.00 0.01 0.00 0.00 0.00 0.00 0.00 0.00 0.00 0.00 0.00 0.00 0.00 0.04 0.11 0.05 0.04 0.01 0.00 0.00 0.00 0.00 0.01
0.00 0.00 0.00 0.00 0.00 0.00 0.00 0.00 0.00 0.00 0.00 0.00 0.00 0.00 0.00 0.00 0.00 0.00 0.00 0.00 0.00 0.00 0.00 0.00 0.00 0.00 0.00 0.00 0.00 0.00 0.00 0.00 0.01 0.02 0.03 0.02 0.04 0.02 0.00 0.00 0.00 0.00 0.01
0.00 0.00 0.00 0.00 0.00 0.00 0.00 0.00 0.00 0.00 0.00 0.00 0.00 0.00 0.00 0.00 0.00 0.00 0.00 0.00 0.01 0.00 0.00 0.00 0.00 0.00 0.00 0.00 0.00 0.00 0.00 0.00 0.01 0.02 0.01 0.02 0.04 0.01 0.01 0.01 0.00 0.00 0.01
0.00 0.00 0.00 0.00 0.00 0.00 0.00 0.00 0.00 0.00 0.00 0.00 0.00 0.00 0.00 0.00 0.00 0.00 0.00 0.00 0.01 0.00 0.00 0.00 0.00 0.00 0.00 0.00 0.00 0.00 0.00 0.00 0.00 0.01 0.00 0.01 0.01 0.00 0.01 0.02 0.02 0.01 0.00
0.00 0.00 0.00 0.00 0.00 0.00 0.00 0.00 0.00 0.00 0.00 0.00 0.00 0.00 0.00 0.00 0.00 0.00 0.00 0.00 0.01 0.00 0.00 0.00 0.00 0.00 0.00 0.00 0.00 0.00 0.00 0.00 0.00 0.00 0.00 0.01 0.01 0.00 0.01 0.02 0.04 0.03 0.02
0.00 0.00 0.00 0.00 0.00 0.00 0.00 0.00 0.00 0.00 0.00 0.00 0.00 0.00 0.00 0.00 0.00 0.00 0.00 0.00 0.00 0.01 0.01 0.01 0.02 0.01 0.01 0.01 0.01 0.00 0.00 0.00 0.00 0.00 0.00 0.00 0.01 0.01 0.01 0.02 0.04 0.05 0.04
0.00 0.00 0.00 0.00 0.00 0.00 0.00 0.00 0.00 0.00 0.00 0.00 0.00 0.00 0.00 0.00 0.01 0.01 0.01 0.01 0.01 0.02 0.02 0.02 0.03 0.02 0.02 0.02 0.01 0.02 0.01 0.00 0.00 0.00 0.01 0.01 0.01 0.01 0.01 0.01 0.03 0.05 0.05
0.00 0.00 0.00 0.00 0.00 0.00 0.00 0.01 0.00 0.00 0.01 0.02 0.05 0.03 0.02 0.03 0.03 0.02 0.03 0.04 0.04 0.03 0.03 0.03 0.03 0.02 0.02 0.03 0.08 0.10 0.03 0.02 0.02 0.02 0.03 0.05 0.02 0.01 0.01 0.01 0.02 0.03 0.04
0.00 0.00 0.00 0.00 0.00 0.00 0.00 0.01 0.01 0.00 0.02 0.04 0.06 0.06 0.10 0.08 0.05 0.03 0.05 0.07 0.05 0.04 0.04 0.06 0.06 0.04 0.07 0.11 0.19 0.18 0.07 0.05 0.05 0.05 0.05 0.04 0.03 0.02 0.01 0.01 0.01 0.01 0.02
0.00 0.00 0.00 0.00 0.00 0.01 0.01 0.02 0.01 0.01 0.02 0.02 0.03 0.08 0.10 0.09 0.07 0.07 0.07 0.08 0.10 0.10 0.11 0.13 0.15 0.15 0.15 0.16 0.16 0.16 0.11 0.08 0.05 0.08 0.10 0.06 0.04 0.04 0.03 0.02 0.02 0.01 0.01
0.00 0.00 0.00 0.01 0.02 0.02 0.02 0.03 0.02 0.01 0.02 0.02 0.03 0.04 0.08 0.11 0.10 0.09 0.11 0.12 0.11 0.11 0.12 0.14 0.15 0.17 0.16 0.17 0.17 0.17 0.13 0.08 0.06 0.09 0.17 0.14 0.07 0.05 0.04 0.04 0.03 0.03 0.02
0.01 0.01 0.01 0.03 0.04 0.04 0.04 0.05 0.04 0.03 0.03 0.03 0.03 0.05 0.09 0.11 0.13 0.14 0.14 0.14 0.13 0.12 0.13 0.14 0.14 0.16 0.16 0.17 0.13 0.13 0.11 0.09 0.05 0.06 0.13 0.19 0.12 0.05 0.03 0.03 0.02 0.03 0.04
0.02 0.03 0.03 0.04 0.05 0.06 0.11 0.11 0.08 0.06 0.05 0.05 0.07 0.08 0.09 0.11 0.15 0.15 0.14 0.14 0.14 0.13 0.14 0.15 0.14 0.16 0.14 0.14 0.14 0.13 0.12 0.12 0.08 0.08 0.12 0.20 0.19 0.11 0.06 0.04 0.03 0.03 0.04
0.02 0.03 0.05 0.04 0.05 0.08 0.11 0.13 0.15 0.12 0.10 0.10 0.09 0.09 0.10 0.11 0.12 0.14 0.15 0.16 0.20 0.19 0.19 0.20 0.18 0.19 0.17 0.16 0.16 0.13 0.12 0.12 0.09 0.10 0.11 0.15 0.18 0.16 0.13 0.07 0.04 0.03 0.03
0.03 0.06 0.07 0.07 0.07 0.08 0.13 0.16 0.18 0.15 0.14 0.11 0.09 0.09 0.10 0.11 0.13 0.15 0.17 0.19 0.21 0.21 0.21 0.19 0.22 0.24 0.21 0.21 0.17 0.12 0.08 0.07 0.06 0.07 0.08 0.10 0.15 0.16 0.12 0.10 0.06 0.04 0.03
0.03 0.06 0.08 0.10 0.09 0.10 0.13 0.14 0.15 0.14 0.13 0.12 0.11 0.11 0.11 0.12 0.12 0.14 0.15 0.18 0.20 0.22 0.23 0.23 0.26 0.27 0.22 0.19 0.13 0.09 0.07 0.05 0.06 0.06 0.05 0.07 0.11 0.10 0.07 0.08 0.11 0.04 0.02
0.03 0.06 0.08 0.08 0.09 0.09 0.11 0.13 0.12 0.12 0.13 0.13 0.11 0.11 0.11 0.10 0.11 0.13 0.14 0.17 0.18 0.21 0.23 0.22 0.23 0.23 0.20 0.19 0.17 0.13 0.08 0.06 0.07 0.07 0.05 0.05 0.07 0.07 0.05 0.09 0.12 0.10 0.05
0.02 0.03 0.04 0.06 0.06 0.06 0.06 0.08 0.09 0.10 0.11 0.10 0.11 0.13 0.09 0.08 0.11 0.14 0.18 0.18 0.16 0.16 0.18 0.19 0.20 0.18 0.16 0.17 0.16 0.14 0.10 0.08 0.06 0.04 0.04 0.04 0.05 0.07 0.07 0.07 0.12 0.15 0.12
0.01 0.01 0.02 0.03 0.04 0.04 0.04 0.05 0.06 0.06 0.06 0.07 0.07 0.08 0.06 0.05 0.08 0.10 0.12 0.14 0.14 0.13 0.15 0.17 0.17 0.17 0.16 0.16 0.16 0.14 0.10 0.08 0.08 0.05 0.03 0.03 0.06 0.06 0.07 0.06 0.08 0.11 0.10
0.01 0.02 0.02 0.02 0.03 0.03 0.04 0.05 0.05 0.05 0.06 0.06 0.06 0.05 0.05 0.04 0.06 0.08 0.08 0.09 0.11 0.15 0.17 0.16 0.19 0.21 0.20 0.16 0.15 0.13 0.09 0.10 0.11 0.10 0.05 0.03 0.06 0.09 0.06 0.05 0.07 0.10 0.07
0.01 0.01 0.01 0.01 0.01 0.01 0.02 0.03 0.04 0.04 0.04 0.03 0.03 0.04 0.04 0.04 0.04 0.06 0.07 0.07 0.07 0.11 0.16 0.18 0.21 0.20 0.21 0.19 0.17 0.17 0.14 0.12 0.10 0.10 0.11 0.07 0.05 0.05 0.04 0.05 0.07 0.09 0.09
0.00 0.00 0.00 0.00 0.01 0.01 0.02 0.03 0.04 0.03 0.03 0.03 0.03 0.03 0.03 0.04 0.06 0.06 0.07 0.08 0.09 0.10 0.13 0.17 0.20 0.19 0.18 0.18 0.17 0.19 0.19 0.16 0.11 0.10 0.09 0.09 0.08 0.04 0.03 0.03 0.04 0.05 0.06
MSLP
1006.00 1006.16 1006.52 1007.06 1007.71 1008.40 1009.01 1009.50 1009.84 1010.06 1010.21 1010.37 1010.61 1010.95 1011.37 1011.85 1012.33 1012.74 1013.05 1013.27 1013.41 1013.51 1013.63 1013.77 1013.96 1014.18 1014.39 1014.56 1014.68 1014.74 1014.77 1014.79 1014.84 1014.94 1015.11 1015.32 1015.56 1015.78 1015.96 1016.10 1016.20 1016.28 1016.38
1005.69 1005.95 1006.41 1007.06 1007.80 1008.53 1009.16 1009.62 1009.92 1010.08 1010.19 1010.34 1010.59 1010.97 1011.45 1011.98 1012.49 1012.93 1013.24 1013.44 1013.56 1013.64 1013.74 1013.88 1014.08 1014.31 1014.53 1014.72 1014.84 1014.89 1014.91 1014.92 1014.97 1015.09 1015.28 1015.52 1015.78 1016.04 1016.25 1016.41 1016.53 1016.63 1016.75
1005.28 1005.64 1006.23 1006.99 1007.82 1008.62 1009.28 1009.74 1010.02 1010.16 1010.26 1010.41 1010.68 1011.07 1011.58 1012.12 1012.63 1013.05 1013.33 1013.50 1013.58 1013.65 1013.75 1013.91 1014.13 1014.39 1014.64 1014.84 1014.96 1015.01 1015.01 1015.01 1015.05 1015.17 1015.37 1015.64 1015.94 1016.22 1016.47 1016.67 1016.81 1016.94 1017.08
1004.87 1005.34 1006.04 1006.92 1007.85 1008.71 1009.40 1009.89 1010.17 1010.31 1010.42 1010.58 1010.86 1011.26 1011.76 1012.28 1012.76 1013.12 1013.35 1013.47 1013.52 1013.58 1013.69 1013.89 1014.16 1014.46 1014.75 1014.96 1015.08 1015.11 1015.09 1015.06 1015.09 1015.20 1015.41 1015.69 1016.02 1016.34 1016.62 1016.85 1017.03 1017.19 1017.36
1004.56 1005.13 1005.94 1006.91 1007.92 1008.83 1009.56 1010.06 1010.35 1010.50 1010.63 1010.80 1011.09 1011.49 1011.97 1012.45 1012.86 1013.16 1013.32 1013.38 1013.41 1013.47 1013.61 1013.86 1014.18 1014.54 1014.86 1015.09 1015.20 1015.21 1015.16 1015.10 1015.10 1015.19 1015.40 1015.69 1016.04 1016.38 1016.70 1016.96 1017.18 1017.38 1017.58
1004.41 1005.07 1005.96 1007.00 1008.05 1008.99 1009.73 1010.23 1010.52 1010.69 1010.82 1011.01 1011.31 1011.70 1012.15 1012.58 1012.93 1013.15 1013.24 1013.27 1013.28 1013.35 1013.53 1013.83 1014.21 1014.61 1014.96 1015.21 1015.31 1015.30 1015.21 1015.11 1015.08 1015.15 1015.35 1015.64 1016.00 1016.37 1016.71 1017.00 1017.25 1017.49 1017.72
1004.41 1005.15 1006.10 1007.18 1008.24 1009.17 1009.88 1010.35 1010.63 1010.79 1010.93 1011.14 1011.44 1011.82 1012.24 1012.62 1012.91 1013.07 1013.12 1013.11 1013.12 1013.21 1013.43 1013.78 1014.21 1014.66 1015.03 1015.28 1015.37 1015.33 1015.20 1015.07 1015.00 1015.06 1015.24 1015.54 1015.90 1016.28 1016.64 1016.96 1017.23 1017.50 1017.76
1004.53 1005.32 1006.31 1007.38 1008.42 1009.30 1009.95 1010.38 1010.62 1010.76 1010.90 1011.11 1011.42 1011.80 1012.20 1012.55 1012.79 1012.91 1012.93 1012.91 1012.92 1013.04 1013.29 1013.68 1014.15 1014.62 1015.01 1015.25 1015.33 1015.26 1015.10 1014.94 1014.85 1014.89 1015.07 1015.36 1015.72 1016.11 1016.48 1016.82 1017.12 1017.40 1017.69
1004.67 1005.49 1006.48 1007.53 1008.50 1009.31 1009.89 1010.25 1010.44 1010.56 1010.69 1010.91 1011.22 1011.60 1011.99 1012.33 1012.55 1012.65 1012.66 1012.64 1012.66 1012.80 1013.08 1013.50 1013.98 1014.46 1014.85 1015.08 1015.14 1015.05 1014.88 1014.70 1014.60 1014.63 1014.80 1015.09 1015.46 1015.86 1016.24 1016.58 1016.89 1017.19 1017.51
1004.76 1005.59 1006.56 1007.55 1008.45 1009.16 1009.66 1009.94 1010.09 1010.19 1010.32 1010.54 1010.86 1011.25 1011.64 1011.97 1012.20 1012.30 1012.31 1012.30 1012.34 1012.49 1012.79 1013.21 1013.70 1014.17 1014.54 1014.75 1014.80 1014.70 1014.52 1014.34 1014.24 1014.27 1014.45 1014.74 1015.12 1015.52 1015.91 1016.27 1016.59 1016.90 1017.23
1004.76 1005.57 1006.49 1007.42 1008.23 1008.85 1009.27 1009.50 1009.61 1009.69 1009.82 1010.06 1010.39 1010.79 1011.19 1011.53 1011.76 1011.87 1011.90 1011.90 1011.96 1012.13 1012.42 1012.83 1013.30 1013.75 1014.09 1014.29 1014.32 1014.22 1014.05 1013.88 1013.79 1013.83 1014.02 1014.32 1014.70 1015.11 1015.51 1015.88 1016.22 1016.54 1016.88
1004.69 1005.46 1006.32 1007.15 1007.88 1008.43 1008.78 1008.97 1009.06 1009.15 1009.30 1009.54 1009.89 1010.30 1010.71 1011.06 1011.29 1011.42 1011.47 1011.49 1011.56 1011.72 1012.01 1012.39 1012.83 1013.24 1013.56 1013.74 1013.76 1013.67 1013.51 1013.36 1013.28 1013.34 1013.53 1013.84 1014.23 1014.65 1015.06 1015.44 1015.79 1016.13 1016.48
1004.62 1005.32 1006.09 1006.84 1007.48 1007.96 1008.27 1008.44 1008.54 1008.65 1008.81 1009.08 1009.43 1009.84 1010.25 1010.59 1010.84 1010.98 1011.04 1011.08 1011.16 1011.32 1011.58 1011.94 1012.33 1012.71 1013.00 1013.16 1013.19 1013.10 1012.96 1012.82 1012.76 1012.82 1013.01 1013.32 1013.71 1014.13 1014.56 1014.96 1015.33 1015.70 1016.06
1004.65 1005.26 1005.93 1006.57 1007.12 1007.54 1007.83 1008.01 1008.13 1008.26 1008.44 1008.71 1009.07 1009.46 1009.85 1010.18 1010.42 1010.57 1010.64 1010.70 1010.78 1010.94 1011.18 1011.51 1011.87 1012.21 1012.47 1012.62 1012.64 1012.56 1012.43 1012.31 1012.25 1012.31 1012.48 1012.77 1013.15 1013.57 1014.01 1014.43 1014.84 1015.23 1015.61
1004.87 1005.36 1005.90 1006.43 1006.90 1007.27 1007.54 1007.73 1007.88 1008.03 1008.23 1008.49 1008.82 1009.18 1009.52 1009.82 1010.05 1010.19 1010.28 1010.35 1010.45 1010.61 1010.84 1011.13 1011.46 1011.76 1012.00 1012.13 1012.16 1012.09 1011.97 1011.84 1011.78 1011.80 1011.95 1012.20 1012.55 1012.96 1013.41 1013.85 1014.29 1014.71 1015.13
1005.31 1005.68 1006.08 1006.50 1006.88 1007.20 1007.46 1007.65 1007.82 1007.98 1008.17 1008.41 1008.69 1008.98 1009.27 1009.52 1009.72 1009.86 1009.95 1010.04 1010.15 1010.32 1010.54 1010.82 1011.11 1011.39 1011.60 1011.72 1011.74 1011.68 1011.55 1011.42 1011.32 1011.31 1011.41 1011.61 1011.92 1012.31 1012.74 1013.21 1013.68 1014.14 1014.59
1005.97 1006.20 1006.47 1006.76 1007.05 1007.33 1007.56 1007.76 1007.93 1008.09 1008.26 1008.44 1008.64 1008.86 1009.06 1009.25 1009.41 1009.54 1009.64 1009.75 1009.89 1010.07 1010.29 1010.55 1010.82 1011.07 1011.26 1011.37 1011.38 1011.31 1011.17 1011.02 1010.88 1010.82 1010.85 1011.00 1011.25 1011.60 1012.03 1012.50 1013.00 1013.50 1013.99
1006.74 1006.85 1006.99 1007.17 1007.38 1007.61 1007.82 1008.01 1008.17 1008.31 1008.43 1008.54 1008.65 1008.77 1008.89 1009.01 1009.12 1009.23 1009.35 1009.49 1009.65 1009.85 1010.07 1010.32 1010.57 1010.80 1010.96 1011.05 1011.05 1010.96 1010.81 1010.63 1010.45 1010.33 1010.29 1010.37 1010.56 1010.87 1011.28 1011.75 1012.27 1012.81 1013.33
1007.52 1007.52 1007.56 1007.65 1007.79 1007.97 1008.16 1008.33 1008.48 1008.59 1008.65 1008.68 1008.70 1008.72 1008.74 1008.79 1008.86 1008.96 1009.10 1009.26 1009.45 1009.66 1009.89 1010.13 1010.36 1010.55 1010.69 1010.75 1010.73 1010.63 1010.46 1010.25 1010.03 1009.85 1009.75 1009.76 1009.89 1010.15 1010.53 1010.99 1011.52 1012.07 1012.63
1008.18 1008.11 1008.07 1008.10 1008.19 1008.33 1008.50 1008.67 1008.80 1008.87 1008.89 1008.85 1008.77 1008.70 1008.64 1008.63 1008.66 1008.76 1008.90 1009.09 1009.30 1009.53 1009.76 1009.98 1010.18 1010.34 1010.44 1010.47 1010.43 1010.30 1010.12 1009.89 1009.64 1009.42 1009.27 1009.21 1009.28 1009.49 1009.82 1010.26 1010.79 1011.35 1011.91
1008.63 1008.52 1008.44 1008.43 1008.49 1008.63 1008.79 1008.96 1009.08 1009.13 1009.11 1009.01 1008.87 1008.72 1008.60 1008.54 1008.55 1008.63 1008.79 1008.99 1009.23 1009.46 1009.69 1009.89 1010.05 1010.16 1010.22 1010.22 1010.15 1010.02 1009.82 1009.57 1009.31 1009.06 1008.87 1008.76 1008.78 1008.93 1009.22 1009.62 1010.11 1010.66 1011.22
1008.83 1008.71 1008.62 1008.60 1008.67 1008.80 1008.98 1009.16 1009.29 1009.34 1009.29 1009.16 1008.98 1008.78 1008.62 1008.53 1008.52 1008.61 1008.77 1008.99 1009.24 1009.47 1009.68 1009.85 1009.97 1010.04 1010.06 1010.02 1009.93 1009.78 1009.58 1009.34 1009.07 1008.81 1008.59 1008.45 1008.42 1008.52 1008.74 1009.10 1009.54 1010.05 1010.59
1008.78 1008.68 1008.61 1008.60 1008.68 1008.83 1009.03 1009.23 1009.38 1009.45 1009.41 1009.28 1009.08 1008.87 1008.69 1008.58 1008.57 1008.66 1008.83 1009.06 1009.31 1009.54 1009.73 1009.87 1009.95 1009.98 1009.95 1009.89 1009.78 1009.63 1009.43 1009.20 1008.95 1008.69 1008.47 1008.30 1008.23 1008.27 1008.43 1008.72 1009.10 1009.55 1010.05
1008.55 1008.49 1008.44 1008.46 1008.55 1008.73 1008.95 1009.17 1009.35 1009.45 1009.43 1009.31 1009.13 1008.92 1008.75 1008.64 1008.63 1008.73 1008.91 1009.14 1009.39 1009.61 1009.79 1009.90 1009.95 1009.94 1009.89 1009.80 1009.69 1009.54 1009.37 1009.17 1008.94 1008.70 1008.48 1008.30 1008.20 1008.18 1008.28 1008.49 1008.79 1009.17 1009.60
1008.25 1008.22 1008.19 1008.22 1008.32 1008.51 1008.74 1008.98 1009.19 1009.31 1009.33 1009.24 1009.08 1008.90 1008.73 1008.64 1008.64 1008.74 1008.92 1009.16 1009.40 1009.63 1009.79 1009.89 1009.93 1009.90 1009.84 1009.75 1009.64 1009.51 1009.37 1009.21 1009.02 1008.82 1008.62 1008.44 1008.30 1008.24 1008.27 1008.40 1008.61 1008.91 1009.27
1007.97 1007.95 1007.93 1007.95 1008.04 1008.21 1008.44 1008.68 1008.89 1009.03 1009.08 1009.02 1008.89 1008.73 1008.59 1008.50 1008.51 1008.62 1008.80 1009.05 1009.30 1009.53 1009.70 1009.80 1009.84 1009.82 1009.76 1009.69 1009.60 1009.51 1009.41 1009.29 1009.16 1009.00 1008.83 1008.66 1008.52 1008.42 1008.39 1008.43 1008.56 1008.78 1009.06
Thickness
5864 5857 5847 5841 5836 5831 5826 5821 5817 5812 5808 5804 5801 5797 5794 5791 5788 5785 5782 5780 5777 5775 5773 5771 5769 5767 5765 5764 5763 5761 5760 5759 5758 5757 5755 5753 5752 5751 5750 5749 5749 5748 5746
5867 5855 5846 5840 5835 5829 5824 5820 5815 5811 5807 5803 5800 5796 5793 5789 5786 5784 5781 5778 5776 5774 5772 5769 5767 5765 5764 5762 5761 5760 5759 5758 5756 5755 5754 5752 5751 5749 5748 5749 5749 5747 5745
5864 5853 5845 5839 5833 5828 5823 5818 5814 5810 5806 5802 5798 5795 5792 5788 5785 5782 5779 5777 5774 5772 5770 5768 5765 5764 5762 5761 5759 5758 5757 5756 5755 5754 5753 5753 5750 5748 5747 5747 5746 5745 5744
5861 5851 5844 5837 5831 5826 5821 5817 5813 5808 5805 5801 5797 5794 5790 5787 5784 5781 5778 5775 5773 5770 5768 5766 5764 5762 5760 5759 5758 5756 5756 5755 5755 5754 5754 5754 5751 5748 5746 5745 5744 5743 5742
5860 5851 5842 5835 5829 5824 5819 5815 5811 5807 5803 5799 5796 5792 5789 5786 5783 5780 5777 5774 5771 5769 5767 5765 5763 5761 5759 5757 5756 5755 5755 5754 5754 5754 5755 5754 5751 5748 5746 5744 5743 5742 5741
5858 5850 5839 5833 5827 5822 5817 5813 5809 5805 5801 5797 5794 5790 5787 5784 5781 5779 5776 5773 5770 5767 5765 5763 5761 5759 5757 5756 5754 5754 5754 5753 5753 5755 5756 5755 5751 5747 5745 5743 5742 5741 5740
5858 5848 5837 5830 5825 5820 5815 5810 5806 5802 5798 5795 5791 5788 5785 5782 5779 5777 5774 5771 5769 5766 5764 5761 5759 5757 5756 5754 5753 5752 5752 5752 5753 5756 5757 5755 5751 5748 5745 5743 5741 5740 5739
5858 5846 5834 5828 5823 5817 5813 5808 5804 5800 5796 5792 5789 5786 5783 5780 5777 5775 5772 5770 5767 5765 5762 5760 5758 5756 5754 5752 5751 5750 5750 5750 5753 5756 5758 5756 5752 5749 5746 5743 5741 5740 5739
5859 5845 5833 5827 5820 5815 5810 5806 5801 5797 5793 5790 5786 5783 5780 5778 5775 5773 5771 5768 5766 5763 5761 5759 5756 5754 5752 5751 5749 5748 5748 5748 5749 5754 5757 5756 5753 5750 5747 5744 5742 5740 5739
5854 5843 5833 5827 5820 5814 5808 5803 5799 5794 5791 5787 5783 5781 5778 5776 5774 5771 5769 5766 5764 5762 5759 5757 5755 5753 5751 5750 5748 5747 5746 5746 5748 5752 5756 5756 5754 5751 5748 5745 5742 5740 5739
5847 5840 5834 5826 5819 5814 5808 5803 5796 5792 5788 5784 5781 5778 5775 5773 5771 5770 5769 5766 5762 5760 5757 5755 5754 5752 5750 5749 5747 5746 5744 5745 5748 5751 5755 5756 5753 5752 5749 5746 5743 5741 5740
5838 5836 5833 5826 5819 5814 5811 5803 5796 5791 5787 5783 5780 5776 5773 5771 5771 5771 5769 5766 5762 5758 5756 5754 5752 5750 5748 5748 5748 5746 5745 5745 5747 5752 5755 5754 5752 5751 5750 5747 5744 5742 5740
5836 5833 5830 5825 5819 5814 5810 5803 5798 5794 5789 5783 5781 5777 5774 5772 5770 5769 5768 5764 5760 5757 5754 5752 5750 5749 5749 5749 5750 5748 5746 5748 5749 5751 5754 5754 5752 5751 5749 5747 5744 5742 5741
5832 5829 5827 5822 5816 5812 5809 5804 5799 5795 5791 5786 5782 5778 5775 5771 5769 5768 5765 5762 5758 5755 5753 5751 5749 5749 5749 5750 5750 5749 5748 5748 5749 5750 5752 5752 5750 5750 5749 5747 5744 5742 5741
5826 5824 5821 5818 5812 5806 5803 5799 5797 5793 5790 5786 5782 5776 5772 5768 5764 5762 5761 5758 5755 5753 5751 5749 5747 5746 5746 5747 5748 5749 5749 5749 5748 5750 5749 5749 5748 5747 5747 5745 5744 5742 5741
5818 5818 5816 5811 5806 5801 5795 5791 5789 5787 5783 5780 5775 5771 5767 5763 5759 5756 5753 5752 5751 5749 5748 5746 5744 5743 5743 5743 5744 5746 5748 5748 5748 5748 5747 5747 5746 5745 5745 5744 5743 5742 5741
5812 5811 5807 5802 5799 5793 5787 5783 5781 5778 5775 5771 5767 5764 5760 5757 5753 5750 5747 5746 5745 5744 5743 5742 5740 5740 5739 5740 5740 5742 5745 5746 5748 5748 5746 5745 5744 5744 5742 5742 5742 5741 5740
5803 5800 5798 5795 5789 5784 5779 5774 5771 5768 5765 5761 5759 5756 5753 5750 5747 5745 5742 5741 5740 5738 5737 5735 5734 5733 5734 5735 5735 5737 5741 5743 5745 5746 5744 5742 5743 5743 5741 5740 5741 5740 5740
5791 5788 5785 5782 5778 5774 5770 5766 5764 5760 5757 5754 5752 5750 5746 5744 5742 5740 5738 5737 5735 5732 5730 5730 5730 5728 5727 5729 5731 5733 5737 5740 5743 5744 5744 5744 5745 5744 5743 5742 5741 5741 5740
5780 5777 5774 5770 5767 5764 5760 5757 5754 5751 5748 5746 5744 5743 5740 5737 5735 5735 5733 5731 5729 5726 5725 5724 5722 5722 5723 5725 5727 5731 5734 5738 5740 5742 5743 5745 5745 5744 5743 5744 5742 5741 5740
5768 5765 5762 5758 5756 5753 5749 5745 5742 5739 5738 5738 5737 5736 5733 5730 5729 5727 5726 5724 5722 5720 5719 5719 5717 5715 5717 5720 5718 5721 5728 5734 5736 5738 5741 5743 5745 5745 5746 5745 5744 5742 5741
5756 5754 5751 5748 5746 5743 5740 5738 5734 5732 5731 5730 5730 5728 5725 5723 5722 5721 5719 5717 5716 5715 5714 5713 5712 5710 5712 5716 5713 5711 5712 5720 5729 5737 5739 5741 5743 5745 5746 5746 5744 5743 5742
5747 5744 5743 5739 5736 5734 5732 5730 5728 5725 5722 5720 5719 5718 5717 5716 5714 5713 5712 5710 5710 5709 5708 5708 5708 5706 5705 5709 5712 5710 5706 5708 5719 5730 5736 5739 5740 5741 5743 5744 5743 5742 5741
5741 5739 5735 5732 5728 5725 5722 5719 5714 5711 5708 5709 5709 5709 5708 5708 5707 5705 5704 5703 5703 5703 5702 5703 5704 5703 5702 5702 5706 5710 5712 5713 5709 5712 5724 5733 5735 5736 5739 5742 5743 5742 5741
5737 5733 5729 5725 5720 5717 5713 5708 5704 5701 5700 5700 5699 5698 5698 5698 5697 5697 5696 5695 5695 5695 5695 5695 5696 5697 5697 5697 5699 5703 5706 5709 5711 5707 5707 5717 5724 5730 5734 5738 5739 5739 5740
5731 5726 5722 5717 5712 5708 5703 5699 5694 5691 5688 5686 5685 5685 5686 5687 5687 5687 5687 5686 5686 5685 5685 5686 5687 5689 5690 5691 5694 5696 5698 5700 5702 5705 5704 5708 5712 5722 5729 5734 5736 5736 5738